[[{"header":{"parameterUnit":"m.s-1","parameterCategory":1,"la1":30.2991,"la2":30.254,"lo1":-89.0895,"lo2":-89.0444,"dy":0.0017,"dx":0.0017,"nx":28,"ny":28,"refTime":"2023-08-23T09:00:00:Z","depth":0,"parameterNumber":2,"parameterNumberName":"U-component_of_WINDS"},"data":[0,0,0,0,0,0,0,0,0,0,0,0,0,0,0,0,0,0,0,0,0,0,0,0,0,0,0,0,0,0,0,0,0,0,0,0,0,0,0,0,0,0,0,0,0,0,0,0,0,0,0,0,0,0,0,0,0,0,-0.9465,-0.9465,0,-0.9491,-0.9491,-0.9492,-0.9474,-0.9473,-0.9472,-0.9472,-0.95,-0.9502,-0.9503,0,0,0,0,0,0,0,0,0,0,0,0,0,-0.9403,-0.9404,-0.9465,-0.9466,-0.9466,-0.9491,-0.9491,-0.9492,-0.9474,-0.9473,-0.9472,-0.9471,-0.95,-0.9502,-0.9503,0,0,0,0,0,0,0,0,0,0,0,0,0,-0.943,-0.9404,-0.9465,-0.946,-0.946,-0.9491,-0.9491,-0.9492,-0.9474,-0.9473,-0.9472,-0.9471,-0.9499,-0.9501,-0.9504,-0.9542,0,0,-0.9511,-0.9512,0,0,0,0,0,0,0,0,-0.9428,-0.9432,-0.946,-0.946,-0.946,-0.9478,-0.948,-0.9509,-0.9475,-0.9469,-0.9472,-0.947,-0.9494,-0.9497,-0.9504,-0.9543,-0.9545,-0.9511,-0.9512,-0.9513,-0.9514,0,0,0,0,0,0,0,-0.9426,-0.9431,-0.9475,-0.9461,-0.9461,-0.9457,-0.946,-0.9485,-0.9488,-0.9469,-0.9468,-0.9471,-0.9494,-0.9502,-0.9505,-0.9545,-0.9511,-0.9513,-0.9514,-0.9515,-0.9618,-0.9619,0,0,0,0,0,0,-0.9424,-0.9429,-0.9475,-0.9476,-0.9441,-0.9459,-0.9462,-0.9474,-0.9488,-0.9489,-0.9472,-0.947,-0.9499,-0.9502,-0.9506,-0.9552,-0.9513,-0.9515,-0.9517,-0.9616,-0.9618,-0.962,0,0,0,0,0,0,-0.9423,-0.9429,-0.9474,-0.9452,-0.9458,-0.9462,-0.9475,-0.9475,-0.9483,-0.949,-0.949,-0.948,-0.9498,-0.9502,-0.9533,-0.9553,-0.9516,-0.9518,-0.9615,-0.9617,-0.9619,-0.9645,0,0,0,0,0,0,-0.9422,-0.9428,-0.9442,-0.9453,-0.9459,-0.95,-0.9476,-0.9476,-0.9487,-0.9484,-0.9497,-0.9498,-0.9497,-0.953,-0.9535,-0.9555,-0.952,-0.9613,-0.9616,-0.9618,-0.9642,-0.9648,-0.9652,0,0,0,0,0,-0.9419,-0.9449,-0.9443,-0.9449,-0.9477,-0.9501,-0.9505,-0.9502,-0.9488,-0.9503,-0.9507,-0.9498,-0.955,-0.9533,-0.9539,-0.956,-0.9612,-0.9615,-0.9618,-0.964,-0.9647,-0.9652,0,0,0,0,0,0,-0.9442,-0.945,-0.9444,-0.9478,-0.9489,-0.9498,-0.9516,-0.9509,-0.9525,-0.9522,-0.9519,-0.9522,-0.9554,-0.956,-0.9542,-0.9598,-0.9579,-0.9583,-0.9593,-0.96,-0.9604,-0.9603,-0.9522,0,0,0,0,0,-0.945,-0.9469,-0.9476,-0.9505,-0.9511,-0.9513,-0.9523,-0.952,-0.9532,-0.9537,-0.9543,-0.9556,-0.9575,-0.9587,-0.9605,-0.9643,-0.9646,-0.966,-0.9665,-0.9669,-0.9674,-0.9695,-0.9702,-0.963,-0.963,-0.9629,0,0,-0.9469,-0.9476,-0.9488,-0.951,-0.9518,-0.9538,-0.9517,-0.9539,-0.9554,-0.954,-0.957,-0.9575,-0.9589,-0.9623,-0.9639,-0.9629,-0.9694,-0.9673,-0.9676,-0.9678,-0.9699,-0.9705,-0.9712,-0.9632,-0.9631,-0.9631,0,0,-0.9513,-0.952,-0.9545,-0.9554,-0.9566,-0.9567,-0.9573,-0.9584,-0.9587,-0.9616,-0.9606,-0.9624,-0.9657,-0.9667,-0.9677,-0.9725,-0.9717,-0.9731,-0.9757,-0.9778,-0.9783,-0.9788,-0.9807,-0.9813,-0.9735,-0.9735,-0.9735,0,-0.9534,-0.9564,-0.9559,-0.9582,-0.9592,-0.958,-0.9606,-0.9615,-0.9633,-0.9641,-0.963,-0.9671,-0.9679,-0.9716,-0.9728,-0.9736,-0.9743,-0.973,-0.9783,-0.9788,-0.9792,-0.981,-0.9816,-0.9737,-0.9736,-0.9736,-0.9736,0,-0.959,-0.961,-0.963,-0.9647,-0.9659,-0.9683,-0.9684,-0.9697,-0.9693,-0.9695,-0.9726,-0.9735,-0.9755,-0.9763,-0.976,-0.9801,-0.9794,-0.9783,-0.9763,-0.9801,-0.9817,-0.9824,-0.9739,-0.9738,-0.9738,-0.9737,0,0,-0.9649,-0.9663,-0.9671,-0.9678,-0.9691,-0.9707,-0.9732,-0.975,-0.9762,-0.9775,-0.9796,-0.9824,-0.9814,-0.9824,-0.9822,-0.984,-0.9879,-0.9827,-0.9827,-0.9837,-0.9925,-0.9934,-0.9942,-0.9874,-0.9875,-0.9876,-0.9924,0,-0.9695,-0.9736,-0.9733,-0.9773,-0.9792,-0.9781,-0.9802,-0.9813,-0.9816,-0.9833,-0.9837,-0.9857,-0.9842,-0.9848,-0.9865,-0.987,-0.9897,-0.9867,-0.9894,-0.9895,-0.9892,-0.995,-0.996,-1.0005,-0.9931,-0.9932,-0.9932,0,-0.9753,-0.9768,-0.9809,-0.9819,-0.9827,-0.9846,-0.9864,-0.988,-0.9892,-0.9893,-0.9905,-0.99,-0.9926,-0.9905,-0.994,-0.992,-0.9931,-0.9935,-0.9937,-0.994,-0.9917,-0.9956,-1.0019,-1.0027,-0.9942,-0.9941,-0.9941,0,-0.9794,-0.9823,-0.9852,-0.9859,-0.9871,-0.9885,-0.9891,-0.9902,-0.9914,-0.9929,-0.9937,-0.9955,-0.9965,-0.998,-0.998,-0.9965,-1.0017,-0.9995,-1.0019,-1.0019,-1.0031,-1.0031,-1.0099,-1.0037,-1.0037,-1.0037,-1.0037,0,-0.9845,-0.9871,-0.987,-0.9888,-0.9917,-0.9913,-0.9943,-0.9947,-0.9957,-0.9976,-0.9968,-0.9986,-0.9985,-1.0003,-1.0004,-1.0034,-1.0038,-1.0041,-1.0041,-1.0042,-1.0042,-1.005,-1.0047,-1.0039,-1.0038,-1.0038,-1.0037,0,-0.9895,-0.9895,-0.9926,-0.9935,-0.9938,-0.9959,-0.9968,-0.9985,-0.9987,-1.0012,-1.0017,-1.0021,-1.0043,-1.0044,-1.007,-1.007,-1.0107,-1.0103,-1.0102,-1.0102,-1.0126,-1.0124,-1.0202,-1.0213,-1.0143,-1.0144,-1.0144,0,-0.9929,-0.9948,-0.9959,-0.9971,-0.9978,-0.9997,-1.0009,-1.0006,-1.0019,-1.0034,-1.005,-1.0071,-1.0088,-1.0123,-1.0129,-1.0148,-1.0145,-1.0171,-1.0148,-1.0149,-1.0147,-1.0146,-1.0148,-1.0176,-1.0177,-1.0177,-1.0178,0,-0.9988,-0.9987,-1.0004,-1.0021,-1.0035,-1.0048,-1.0061,-1.0071,-1.007,-1.0085,-1.0107,-1.012,-1.0145,-1.0167,-1.0186,-1.0193,-1.0186,-1.0185,-1.0192,-1.0194,-1.0193,-1.0195,-1.0116,-1.0183,-1.0183,-1.0183,-1.0182,-1.0182,-1.0031,-1.0049,-1.0059,-1.0078,-1.0087,-1.0099,-1.0116,-1.012,-1.0138,-1.0158,-1.0156,-1.018,-1.0193,-1.0217,-1.0226,-1.0246,-1.0237,-1.0247,-1.0249,-1.0252,-1.0255,-1.0189,-1.0249,-1.0249,-1.0249,-1.0249,-1.0249,0,-1.0091,-1.0097,-1.0115,-1.0132,-1.0148,-1.0139,-1.0152,-1.0166,-1.0187,-1.0199,-1.0215,-1.0241,-1.0261,-1.0268,-1.0288,-1.0303,-1.03,-1.0309,-1.0308,-1.031,-1.0261,-1.0253,-1.031,-1.031,-1.031,-1.031,-1.031,-1.031,-1.0124,-1.0153,-1.0153,-1.0187,-1.0193,-1.0216,-1.0225,-1.0236,-1.0246,-1.0274,-1.0291,-1.0295,-1.0305,-1.0326,-1.0345,-1.0347,-1.0355,-1.0365,-1.0365,-1.0319,-1.0313,-1.0307,-1.03,-1.0366,-1.0366,-1.0413,-1.0413,-1.0413]},{"header":{"parameterUnit":"m.s-1","parameterCategory":1,"la1":30.2991,"la2":30.254,"lo1":-89.0895,"lo2":-89.0444,"dy":0.0017,"dx":0.0017,"nx":28,"ny":28,"refTime":"2023-08-23T09:00:00:Z","depth":0,"parameterNumber":3,"parameterNumberName":"V-component_of_WINDS"},"data":[0,0,0,0,0,0,0,0,0,0,0,0,0,0,0,0,0,0,0,0,0,0,0,0,0,0,0,0,0,0,0,0,0,0,0,0,0,0,0,0,0,0,0,0,0,0,0,0,0,0,0,0,0,0,0,0,0,0,-0.9426,-0.9427,0,-0.9524,-0.9525,-0.9527,-0.9558,-0.9558,-0.9558,-0.9557,-0.9658,-0.9661,-0.9664,0,0,0,0,0,0,0,0,0,0,0,0,0,-0.9266,-0.9269,-0.9426,-0.9427,-0.9428,-0.9524,-0.9525,-0.9527,-0.9559,-0.9558,-0.9557,-0.9557,-0.9657,-0.9661,-0.9664,0,0,0,0,0,0,0,0,0,0,0,0,0,-0.9347,-0.927,-0.9426,-0.9456,-0.9459,-0.9524,-0.9526,-0.9527,-0.9559,-0.9558,-0.9557,-0.9557,-0.9656,-0.966,-0.9665,-0.9706,0,0,-0.9679,-0.9681,0,0,0,0,0,0,0,0,-0.9342,-0.9353,-0.945,-0.9454,-0.9458,-0.9528,-0.9506,-0.9587,-0.9559,-0.9521,-0.9557,-0.9556,-0.9615,-0.9623,-0.9643,-0.9711,-0.9716,-0.9679,-0.9682,-0.9684,-0.9685,0,0,0,0,0,0,0,-0.9337,-0.9349,-0.9465,-0.9451,-0.9456,-0.9464,-0.9475,-0.9522,-0.9571,-0.9524,-0.9527,-0.9538,-0.9617,-0.9639,-0.9646,-0.9717,-0.9679,-0.9683,-0.9686,-0.9688,-0.9825,-0.9826,0,0,0,0,0,0,-0.9326,-0.9344,-0.9462,-0.9468,-0.9397,-0.9468,-0.948,-0.9506,-0.957,-0.9579,-0.9538,-0.9539,-0.9631,-0.964,-0.9649,-0.9703,-0.9684,-0.9688,-0.9691,-0.9824,-0.9825,-0.9826,0,0,0,0,0,0,-0.9323,-0.9336,-0.9458,-0.9407,-0.9423,-0.9471,-0.9501,-0.9509,-0.953,-0.9581,-0.959,-0.9551,-0.9631,-0.9643,-0.9692,-0.9707,-0.9691,-0.9695,-0.9823,-0.9824,-0.9826,-0.981,0,0,0,0,0,0,-0.9318,-0.9335,-0.9351,-0.9407,-0.9425,-0.9499,-0.9502,-0.9511,-0.9538,-0.954,-0.9595,-0.9604,-0.9631,-0.9685,-0.9697,-0.9713,-0.9698,-0.9822,-0.9824,-0.9825,-0.9809,-0.981,-0.9811,0,0,0,0,0,-0.9312,-0.9342,-0.9352,-0.9366,-0.9447,-0.9499,-0.951,-0.9541,-0.9539,-0.9556,-0.9589,-0.9602,-0.9703,-0.969,-0.9703,-0.9721,-0.9821,-0.9823,-0.9825,-0.9809,-0.981,-0.9811,0,0,0,0,0,0,-0.9287,-0.935,-0.9361,-0.941,-0.9449,-0.9505,-0.9527,-0.9541,-0.9582,-0.9582,-0.9619,-0.9631,-0.9678,-0.9704,-0.9688,-0.9765,-0.9763,-0.9768,-0.9746,-0.9748,-0.9749,-0.9741,-0.9702,0,0,0,0,0,-0.9287,-0.9325,-0.9378,-0.9416,-0.9435,-0.9478,-0.9502,-0.9522,-0.9564,-0.9581,-0.9617,-0.9657,-0.9698,-0.9724,-0.9765,-0.9813,-0.9826,-0.9832,-0.9833,-0.9834,-0.9837,-0.9865,-0.9869,-0.9832,-0.9832,-0.9832,0,0,-0.9288,-0.9327,-0.9349,-0.9412,-0.9445,-0.9483,-0.9491,-0.9531,-0.956,-0.9587,-0.9636,-0.9664,-0.9711,-0.976,-0.9784,-0.9784,-0.985,-0.9836,-0.9836,-0.984,-0.9868,-0.9871,-0.9874,-0.9834,-0.9834,-0.9833,0,0,-0.9309,-0.9342,-0.9378,-0.9411,-0.946,-0.9488,-0.9497,-0.955,-0.957,-0.9619,-0.9641,-0.9676,-0.9745,-0.9778,-0.9804,-0.9838,-0.9852,-0.985,-0.9856,-0.9883,-0.9886,-0.9888,-0.9901,-0.9905,-0.9854,-0.9854,-0.9854,0,-0.9304,-0.9362,-0.9395,-0.9434,-0.9462,-0.9488,-0.9525,-0.9555,-0.9615,-0.9633,-0.9633,-0.9721,-0.9755,-0.9812,-0.982,-0.984,-0.9852,-0.9844,-0.9883,-0.9886,-0.9889,-0.9901,-0.9906,-0.9853,-0.9853,-0.9853,-0.9853,0,-0.9353,-0.9393,-0.9417,-0.9474,-0.9504,-0.9542,-0.9581,-0.9608,-0.9626,-0.9654,-0.9704,-0.9746,-0.9795,-0.9811,-0.9829,-0.9871,-0.9869,-0.9875,-0.9874,-0.9891,-0.9903,-0.9908,-0.9853,-0.9853,-0.9853,-0.9853,0,0,-0.9361,-0.9436,-0.9444,-0.9471,-0.9527,-0.9559,-0.9598,-0.9647,-0.9669,-0.971,-0.9744,-0.9803,-0.9809,-0.9838,-0.986,-0.9884,-0.9909,-0.9887,-0.9889,-0.989,-0.9958,-0.9953,-0.9958,-0.9918,-0.9919,-0.992,-0.9954,0,-0.9389,-0.946,-0.9491,-0.9548,-0.9586,-0.9612,-0.9646,-0.9684,-0.9712,-0.9748,-0.9779,-0.982,-0.9825,-0.9843,-0.9867,-0.99,-0.9923,-0.9898,-0.995,-0.9952,-0.9938,-0.9965,-0.996,-0.999,-0.9959,-0.996,-0.9961,0,-0.9431,-0.9472,-0.9533,-0.9586,-0.9603,-0.9633,-0.968,-0.9715,-0.9759,-0.9778,-0.9811,-0.9832,-0.9874,-0.987,-0.9929,-0.9912,-0.9935,-0.9955,-0.9957,-0.9963,-0.9957,-0.9971,-1.0,-1.0004,-0.9968,-0.9968,-0.9967,0,-0.9431,-0.9501,-0.9547,-0.9569,-0.9631,-0.9652,-0.9679,-0.9723,-0.975,-0.9792,-0.981,-0.9856,-0.9881,-0.9916,-0.9949,-0.9943,-1.0006,-1.0004,-1.0022,-1.0021,-1.0034,-1.0033,-1.0067,-1.0049,-1.0049,-1.0049,-1.0049,0,-0.9459,-0.9495,-0.9548,-0.9576,-0.9617,-0.9653,-0.9693,-0.9722,-0.9761,-0.9795,-0.982,-0.9852,-0.9894,-0.9931,-0.9957,-1.0003,-1.0014,-1.003,-1.0036,-1.0028,-1.0026,-1.0043,-1.0042,-1.005,-1.005,-1.0049,-1.0049,0,-0.9466,-0.9502,-0.9553,-0.9609,-0.9623,-0.9651,-0.9699,-0.9727,-0.9756,-0.9799,-0.9812,-0.9857,-0.9902,-0.9939,-0.9998,-1.0015,-1.0063,-1.007,-1.0048,-1.0051,-1.0068,-1.0065,-1.0114,-1.0123,-1.0099,-1.0099,-1.0099,0,-0.9481,-0.951,-0.9568,-0.9593,-0.962,-0.9659,-0.9688,-0.9724,-0.9752,-0.9806,-0.9828,-0.9875,-0.9914,-0.9985,-1.0023,-1.0069,-1.0078,-1.0092,-1.0085,-1.0075,-1.0078,-1.0076,-1.0079,-1.0092,-1.0092,-1.0092,-1.0092,0,-0.9505,-0.9522,-0.9562,-0.9608,-0.9641,-0.9679,-0.9718,-0.9737,-0.978,-0.9811,-0.9858,-0.9888,-0.9949,-0.9995,-1.0045,-1.0073,-1.009,-1.0094,-1.0101,-1.0092,-1.0078,-1.0086,-1.005,-1.0093,-1.0093,-1.0093,-1.0093,-1.0093,-0.9517,-0.9544,-0.9589,-0.9633,-0.9666,-0.9702,-0.9731,-0.9764,-0.9803,-0.9855,-0.9875,-0.9922,-0.9967,-1.0035,-1.0064,-1.0102,-1.0104,-1.0113,-1.0116,-1.0117,-1.0116,-1.0072,-1.0111,-1.0111,-1.0111,-1.0111,-1.0111,0,-0.9542,-0.9573,-0.9613,-0.9666,-0.9701,-0.9714,-0.9758,-0.9786,-0.9828,-0.9868,-0.9906,-0.996,-1.0005,-1.0047,-1.0095,-1.0117,-1.0126,-1.0129,-1.0127,-1.0134,-1.0112,-1.0102,-1.0121,-1.0121,-1.0121,-1.0121,-1.0121,-1.0121,-0.956,-0.9606,-0.9628,-0.9691,-0.9722,-0.9769,-0.9793,-0.9826,-0.9858,-0.9917,-0.9955,-0.9982,-1.0023,-1.0074,-1.0117,-1.0128,-1.0144,-1.0144,-1.0158,-1.0137,-1.0135,-1.0134,-1.0124,-1.0148,-1.0148,-1.0176,-1.0176,-1.0177]}]]